Tiempo atmosférico en la estación meteorológica de Cabo Vilan, A Coruña (50 m.)



Fecha
DESCASC
Temp. máxima en grados centígrados (hora)
DESCASC
Temp. mínima en grados centígrados (hora)
DESCASC
Temp. media en grados centígrados
DESCASC
Racha de viento máxima en m/sg (hora)
DESCASC
Velocidad máxima media en intervalos de 10 minutos(hora)
DESCASC
Precipitaciones diarias en mm
DESCASC
Precipitaciones de 00:00 a 06:00 en mm
DESCASC
Precipitaciones de 06:00 a 12:00 en mm
DESCASC
Precipitaciones de 12:00 a 18:00 en mm
DESCASC
Precipitaciones de 18:00 a 24:00 en mm
DESCASC
27-10-2020 16.1 (14:30) 13.3 (00:50) 14.7 20.56 (12:10) 14.72 (13:10) 12.6 0 6.5 6.1 0
26-10-2020 15.7 (12:40) 10 (00:00) 12.8 15 (23:00) 11.11 (22:10) 4.2 1.4 1.1 1.6 0.1
25-10-2020 16 (13:30) 9.8 (23:20) 12.9 18.61 (02:20) 15 (02:20) 12.4 0.2 3.8 1.1 7.3
24-10-2020 16.9 (17:20) 14.8 (00:00) 15.8 27.22 (20:20) 19.44 (20:00) 16.5 2.3 0.3 1.7 12.2
23-10-2020 17.2 (13:50) 12.2 (00:00) 14.7 15.56 (23:10) 11.39 (23:10) 0.2 0.2 0 0 0
22-10-2020 17.3 (15:30) 12.6 (00:00) 14.9 14.17 (08:00) 10.28 (03:20) 5.1 0 5 0 0.1
21-10-2020 16.8 (17:00) 12.9 (00:00) 14.8 13.33 (00:20) 9.72 (01:00) 3 2.6 0.1 0.3 0
20-10-2020 17.8 (14:00) 14.6 (00:00) 16.2 16.94 (12:50) 12.22 (06:30) 6.6 0 0 0.1 6.5
19-10-2020 20.1 (05:20) 14.6 (00:00) 17.4 26.11 (15:00) 18.33 (14:30) 15.7 0 0 15.5 0.2
18-10-2020 20.2 (17:00) 14.3 (00:00) 17.3 12.5 (13:50) 8.33 (12:40) 0.2 0 0.2 0 0
17-10-2020 16.3 (15:40) 12.4 (00:00) 14.3 14.72 (11:20) 10.56 (15:50) 0.3 0.3 0 0 0
16-10-2020 17.1 (16:30) 8.1 (00:00) 12.6 8.61 (14:40) 6.94 (15:00) 0 0 0 0 0
15-10-2020 17 (14:30) 11.9 (00:00) 14.4 11.11 (17:00) 9.17 (17:00) 0 0 0 0 0
14-10-2020 15.7 (16:00) 12.3 (00:00) 14 11.67 (06:20) 8.89 (11:20) 1.1 0 0.8 0.3 0
13-10-2020 16.1 (02:40) 12.3 (00:00) 14.2 12.22 (23:50) 9.17 (23:50) 1.5 1.2 0 0 0.3
12-10-2020 16.7 (17:50) 13.3 (00:00) 15 11.11 (01:40) 9.17 (01:30) 0.1 0 0 0.1 0
11-10-2020 16.2 (14:30) 14 (00:00) 15.1 16.67 (08:00) 13.89 (08:10) 0 0 0 0 0
10-10-2020 16.5 (12:40) 14.3 (00:00) 15.4 18.61 (04:50) 15 (04:50) 0.1 0.1 0 0 0
09-10-2020 19.6 (14:40) 15.6 (00:00) 17.6 14.72 (23:10) 12.22 (22:00) 0.1 0 0 0 0.1
08-10-2020 19.2 (17:40) 13.5 (00:00) 16.4 5.28 (05:00) 4.72 (05:10) 0 0 0 0 0
07-10-2020 19.8 (16:40) 15 (00:00) 17.4 7.22 (00:30) 5.83 (00:30) 0.1 0.1 0 0 0
06-10-2020 18 (16:30) 15.8 (00:00) 16.9 11.39 (14:10) 8.61 (13:30) 0.3 0.1 0 0 0.2
05-10-2020 17.5 (15:00) 13.8 (00:00) 15.7 13.61 (16:00) 10 (15:50) 0.1 0 0 0 0.1
04-10-2020 16.7 (17:10) 13.4 (00:00) 15.1 14.72 (00:50) 10.28 (00:20) 2.2 0.4 0.9 0.7 0.2
03-10-2020 17.8 (14:00) 12.3 (00:00) 15 17.22 (01:30) 10.56 (03:00) 2.2 0.2 0.1 0.2 1.7
02-10-2020 16.5 (00:10) 10.6 (00:00) 13.6 20 (18:30) 12.22 (12:30) 4.1 1.8 0.4 1.7 0.2
01-10-2020 18 (15:00) 14.1 (00:00) 16.1 19.17 (20:40) 14.72 (18:30) 5.4 0.1 0.1 0 5.2
30-09-2020 18.9 (14:00) 14.2 (00:00) 16.5 16.39 (22:20) 12.5 (22:20) 1.3 0 0 0 1.3

Gráficas

Temp. máximas Temp. mínimas Temp. medias Precipitaciones Rachas de viento máximas Velocidades máximas media en intervalos de 10 minutos

Datos horarios

Fecha y hora oficial Temperatura (ºC) Velocidad del viento (km/h) Dirección del viento Racha (km/h) Dirección de racha Precipitación (mm) Presión (hPa) Tendencia (hPa) Humedad (%)
2020-10-29 23:00:00 13.8 19 Sur 26 Sur 0 -- -- 66
2020-10-29 22:00:00 13.5 19 Sur 26 Sur 0 -- -- 66
2020-10-29 21:00:00 13.7 20 Sur 27 Sur 0 -- -- 66
2020-10-29 20:00:00 13.2 17 Sur 26 Sur 0 -- -- 67
2020-10-29 19:00:00 13.8 19 Sur 31 Sur 0 -- -- 64
2020-10-29 18:00:00 14.4 21 Sur 38 Sur 0 -- -- 60
2020-10-29 17:00:00 15.4 27 Sur 37 Sur 0 -- -- 61
2020-10-29 16:00:00 16 22 Sur 36 Sur 0 -- -- 64
2020-10-29 15:00:00 15.7 21 Sur 33 Sur 0 -- -- 68
2020-10-29 14:00:00 15.5 22 Sur 40 Sudoeste 0 -- -- 69
2020-10-29 13:00:00 16.2 23 Sur 35 Sur 0 -- -- 68
2020-10-29 12:00:00 16.2 22 Sur 32 Sur 0 -- -- 69
2020-10-29 11:00:00 15.5 18 Sur 25 Sur 0 -- -- 76
2020-10-29 10:00:00 14.4 19 Sur 28 Sur 0 -- -- 80
2020-10-29 09:00:00 13.3 18 Sur 23 Sur 0 -- -- 81
2020-10-29 08:00:00 13.3 16 Sur 24 Sur 0 -- -- 81
2020-10-29 07:00:00 13.5 16 Sur 21 Sur 0 -- -- 80
2020-10-29 06:00:00 13.9 15 Sur 25 Sudoeste 0 -- -- 80
2020-10-29 05:00:00 14.4 19 Sur 27 Sur 0 -- -- 80
2020-10-29 04:00:00 14.2 13 Sudoeste 21 Sur 0 -- -- 80
2020-10-29 03:00:00 14.5 13 Sur 19 Sur 0 -- -- 80
2020-10-29 02:00:00 14.4 15 Sudoeste 24 Sudoeste 0 -- -- 78
2020-10-29 01:00:00 14.6 21 Sudoeste 30 Sudoeste 0 -- -- 77
2020-10-29 00:00:00 14.5 15 Sur 26 Sudoeste 0 -- -- 77
2020-10-28 23:00:00 14.2 15 Sur 25 Sur 0 -- -- 77
2020-10-28 22:00:00 13.9 17 Sur 25 Sudoeste 0 -- -- 75
2020-10-28 21:00:00 14.1 17 Sur 23 Sur 0 -- -- 75
2020-10-28 20:00:00 14.3 16 Sudoeste 23 Sudoeste 0 -- -- 75
2020-10-28 19:00:00 14.3 17 Sudoeste 33 Sudoeste 0 -- -- 75
2020-10-28 18:00:00 15.2 22 Sudoeste 33 Sudoeste 0 -- -- 70
2020-10-28 17:00:00 16 21 Sudoeste 30 Sudoeste 0 -- -- 69
2020-10-28 16:00:00 16.9 20 Sudoeste 28 Sudoeste 0 -- -- 69
2020-10-28 15:00:00 16.1 23 Sudoeste 31 Sudoeste 0 -- -- 70
2020-10-28 14:00:00 17.4 22 Sudoeste 33 Sudoeste 0 -- -- 70
2020-10-28 13:00:00 16.7 23 Sudoeste 31 Sudoeste 0 -- -- 70
2020-10-28 12:00:00 16.5 23 Sudoeste 76 Sudoeste 0 -- -- 72
2020-10-28 11:00:00 15.4 23 Sudoeste 33 Sudoeste 0 -- -- 76
2020-10-28 10:00:00 15.3 24 Sudoeste 32 Sudoeste 0 -- -- 77
2020-10-28 09:00:00 14.4 24 Sudoeste 31 Sudoeste 0 -- -- 80
2020-10-28 08:00:00 14.1 24 Sudoeste 32 Sudoeste 0 -- -- 78
2020-10-28 07:00:00 13.5 19 Sudoeste 27 Sudoeste 0 -- -- 78
2020-10-28 06:00:00 13.8 21 Sudoeste 27 Sudoeste 0 -- -- 78
2020-10-28 05:00:00 14.1 18 Sudoeste 24 Sudoeste 0 -- -- 78
2020-10-28 04:00:00 14 17 Sudoeste 23 Sudoeste 0 -- -- 78
2020-10-28 03:00:00 13.5 19 Sudoeste 30 Sudoeste 0 -- -- 78
2020-10-28 02:00:00 13.8 19 Sudoeste 23 Sudoeste 0 -- -- 80
2020-10-28 01:00:00 13.9 14 Sudoeste 22 Sudoeste 0 -- -- 82
2020-10-28 00:00:00 13.7 14 Sudoeste 22 Sudoeste 0 -- -- 82
2020-10-27 23:00:00 13.6 14 Sudoeste 30 Oeste 0 -- -- 82
2020-10-27 22:00:00 14.3 21 Sudoeste 39 Sudoeste 0 -- -- 83
2020-10-27 21:00:00 14.4 21 Sudoeste 32 Sudoeste 0 -- -- 83
2020-10-27 20:00:00 14.4 17 Sudoeste 30 Sudoeste 0 -- -- 83
2020-10-27 19:00:00 14.7 24 Sudoeste 31 Sudoeste 0 -- -- 84
2020-10-27 18:00:00 14.2 18 Sur 24 Sur 0 -- -- 84
2020-10-27 17:00:00 14.3 11 Sur 32 Oeste 0.2 -- -- 84
2020-10-27 16:00:00 15 13 Sudoeste 62 Sudoeste 2.8 -- -- 84
2020-10-27 15:00:00 16 48 Sudoeste 70 Sudoeste 0.8 -- -- 84
2020-10-27 14:00:00 15.9 50 Sur 73 Sur 0.8 -- -- 84
2020-10-27 13:00:00 15.6 50 Sur 74 Sur 1.5 -- -- 84
2020-10-27 12:00:00 15.2 47 Sur 72 Sur 3.5 -- -- 84
2020-10-27 11:00:00 15.1 50 Sur 70 Sur 1.6 -- -- 83
2020-10-27 10:00:00 14.9 48 Sur 67 Sudoeste 1.2 -- -- 82
2020-10-27 09:00:00 14.7 46 Sur 64 Sudoeste 0.2 -- -- 80
2020-10-27 08:00:00 14.8 44 Sur 66 Sur 0 -- -- 76
2020-10-27 07:00:00 14.9 44 Sur 62 Sur 0 -- -- 74
2020-10-27 06:00:00 14.6 41 Sur 63 Sur 0 -- -- 74
2020-10-27 05:00:00 14.4 41 Sur 59 Sur 0 -- -- 71
2020-10-27 04:00:00 14.2 43 Sudoeste 58 Sudoeste 0 -- -- 70
2020-10-27 03:00:00 13.8 40 Sudoeste 56 Sudoeste 0 -- -- 72
2020-10-27 02:00:00 14.1 42 Sudoeste 56 Sudoeste 0 -- -- 74
2020-10-27 01:00:00 13.4 37 Sudoeste 57 Sudoeste 0 -- -- 75
2020-10-27 00:00:00 13.9 34 Sudoeste 48 Sudoeste 0 -- -- 74
2020-10-26 23:00:00 13.5 35 Sudoeste 54 Sudoeste 0 -- -- 73
2020-10-26 22:00:00 13.8 30 Sudoeste 48 Sudoeste 0 -- -- 73
2020-10-26 21:00:00 13.3 27 Sudoeste 36 Sudoeste 0.1 -- -- 74
2020-10-26 20:00:00 13.1 21 Sudoeste 33 Sudoeste 0 -- -- 74
2020-10-26 19:00:00 12.8 24 Sudoeste 32 Sudoeste 0 -- -- 74
2020-10-26 18:00:00 13 19 Sudoeste 32 Sudoeste 0.7 -- -- 76
2020-10-26 17:00:00 13.3 24 Sudoeste 33 Sudoeste 0 -- -- 69
2020-10-26 16:00:00 15.1 18 Sudoeste 27 Sudoeste 0 -- -- 67
2020-10-26 15:00:00 13.7 20 Sudoeste 48 Oeste 0.9 -- -- 69
2020-10-26 14:00:00 15.3 19 Sudoeste 26 Sudoeste 0 -- -- 59
2020-10-26 13:00:00 15.5 21 Oeste 33 Sudoeste 0 -- -- 61
2020-10-26 12:00:00 14.2 22 Sudoeste 30 Sudoeste 0 -- -- 68
2020-10-26 11:00:00 13.5 20 Oeste 28 Oeste 0 -- -- 70
2020-10-26 10:00:00 13.4 17 Sudoeste 22 Oeste 0 -- -- 70
2020-10-26 09:00:00 12 17 Noroeste 43 Oeste 1.1 -- -- 69
2020-10-26 08:00:00 11.9 25 Oeste 39 Oeste 0 -- -- 69
2020-10-26 07:00:00 12.2 14 Noroeste 21 Noroeste 0 -- -- 70
2020-10-26 06:00:00 11.5 10 Noroeste 25 Noroeste 1.4 -- -- 70
2020-10-26 05:00:00 12.1 17 Oeste 41 Oeste 0 -- -- 66
2020-10-26 04:00:00 12.1 17 Noroeste 35 Noroeste 0 -- -- 65
2020-10-26 03:00:00 12 24 Noroeste 39 Noroeste 0 -- -- 66
2020-10-26 02:00:00 11.9 24 Noroeste 40 Noroeste 0 -- -- 68
2020-10-26 01:00:00 11.2 24 Noroeste 34 Oeste 0 -- -- 69
2020-10-26 00:00:00 10 4 Oeste 39 Oeste 2.7 -- -- 72
2020-10-25 23:00:00 10.6 21 Norte 48 Noroeste 2.2 -- -- 70
2020-10-25 22:00:00 11.4 21 Oeste 49 Noroeste 1.1 -- -- 64
2020-10-25 21:00:00 11.1 27 Noroeste 53 Noroeste 1.3 -- -- 65
2020-10-25 20:00:00 12.1 15 Sudoeste 37 Oeste 0 -- -- 63
2020-10-25 19:00:00 12.4 31 Oeste 50 Oeste 0 -- -- 63
2020-10-25 18:00:00 12.3 18 Oeste 44 Sudoeste 0.5 -- -- 62
2020-10-25 17:00:00 13.1 19 Oeste 37 Oeste 0.2 -- -- 62
2020-10-25 16:00:00 12.4 36 Oeste 51 Sudoeste 0.1 -- -- 57
2020-10-25 15:00:00 14.7 32 Oeste 46 Oeste 0 -- -- 57
2020-10-25 14:00:00 13.2 21 Oeste 64 Oeste 0.3 -- -- 63
2020-10-25 13:00:00 15.2 31 Sudoeste 43 Sudoeste 0 -- -- 62
2020-10-25 12:00:00 13.3 32 Oeste 52 Oeste 0.2 -- -- 68
2020-10-25 11:00:00 12.6 36 Oeste 57 Sudoeste 0.1 -- -- 69
2020-10-25 10:00:00 12.9 29 Sudoeste 45 Sudoeste 0.6 -- -- 76
2020-10-25 09:00:00 12.2 36 Oeste 52 Oeste 1 -- -- 76
2020-10-25 08:00:00 13.1 27 Oeste 41 Sudoeste 0.6 -- -- 78
2020-10-25 07:00:00 12.9 33 Oeste 49 Oeste 1.3 -- -- 76
2020-10-25 06:00:00 13.9 31 Sudoeste 42 Sudoeste 0 -- -- 75
2020-10-25 05:00:00 14.1 21 Sudoeste 38 Sudoeste 0 -- -- 77
2020-10-25 04:00:00 14.2 32 Sudoeste 47 Sudoeste 0 -- -- 73
2020-10-25 03:00:00 14.3 32 Sudoeste 49 Sudoeste 0.1 -- -- 80
2020-10-25 02:00:00 14.5 37 Sudoeste 67 Sudoeste 0 -- -- 80
2020-10-25 01:00:00 15.1 44 Sudoeste 59 Sudoeste 0.1 -- -- 84
2020-10-25 00:00:00 15.6 44 Sudoeste 63 Sudoeste 0.2 -- -- 84
2020-10-24 23:00:00 15.3 48 Sudoeste 89 Sudoeste 4.7 -- -- 84
2020-10-24 22:00:00 15.9 64 Sudoeste 94 Sur 2.8 -- -- 83
2020-10-24 21:00:00 15.9 61 Sudoeste 98 Sudoeste 3.7 -- -- 80
2020-10-24 20:00:00 16.6 70 Sur 97 Sur 0 -- -- 76
2020-10-24 19:00:00 15.9 59 Sur 93 Sudoeste 0.8 -- -- 80
2020-10-24 18:00:00 16.8 62 Sur 91 Sudoeste 0 -- -- 76
2020-10-24 17:00:00 16.8 63 Sur 91 Sur 0 -- -- 77
2020-10-24 16:00:00 16.3 59 Sudoeste 87 Sur 0.3 -- -- 81
2020-10-24 15:00:00 16.4 58 Sur 87 Sur 0 -- -- 81
2020-10-24 14:00:00 16.2 61 Sur 90 Sudoeste 1.1 -- -- 82
2020-10-24 13:00:00 16 59 Sur 85 Sur 0.3 -- -- 80
2020-10-24 12:00:00 16.7 51 Sur 75 Sur 0 -- -- 77
2020-10-24 11:00:00 16.3 54 Sur 78 Sur 0 -- -- 77
2020-10-24 10:00:00 16 55 Sur 75 Sudoeste 0 -- -- 78
2020-10-24 09:00:00 15.8 48 Sur 70 Sudoeste 0 -- -- 80
2020-10-24 08:00:00 15.7 49 Sur 71 Sudoeste 0 -- -- 82
2020-10-24 07:00:00 15.5 51 Sur 73 Sur 0.3 -- -- 83
2020-10-24 06:00:00 15.1 48 Sudoeste 68 Sur 1.3 -- -- 83
2020-10-24 05:00:00 15 45 Sur 64 Sudoeste 0.3 -- -- 81
2020-10-24 04:00:00 15.1 51 Sudoeste 69 Sur 0.7 -- -- 79
2020-10-24 03:00:00 15.8 43 Sur 63 Sur 0 -- -- 72
2020-10-24 02:00:00 16 45 Sur 63 Sudoeste 0 -- -- 70
2020-10-24 01:00:00 15.8 41 Sur 59 Sudoeste 0 -- -- 70
2020-10-24 00:00:00 15.8 39 Sur 56 Sudoeste 0 -- -- 70
2020-10-23 23:00:00 15.8 37 Sur 54 Sur 0 -- -- 69
2020-10-23 22:00:00 15.6 37 Sur 54 Sudoeste 0 -- -- 68
2020-10-23 21:00:00 15.5 35 Sur 50 Sudoeste 0 -- -- 67
2020-10-23 20:00:00 15.4 35 Sur 46 Sur 0 -- -- 66
2020-10-23 19:00:00 15.5 33 Sur 45 Sur 0 -- -- 66
2020-10-23 18:00:00 15.5 31 Sudoeste 47 Sudoeste 0 -- -- 63
2020-10-23 17:00:00 15.6 32 Sudoeste 47 Sudoeste 0 -- -- 62
2020-10-23 16:00:00 16.2 31 Sudoeste 44 Sudoeste 0 -- -- 61
2020-10-23 15:00:00 16.6 32 Sudoeste 45 Sudoeste 0 -- -- 59
2020-10-23 14:00:00 17 30 Sur 39 Sur 0 -- -- 59
2020-10-23 13:00:00 15.8 24 Sur 31 Sur 0 -- -- 67
2020-10-23 12:00:00 15.2 19 Sur 24 Sur 0 -- -- 69
2020-10-23 11:00:00 14.6 18 Sur 24 Sur 0 -- -- 72
2020-10-23 10:00:00 12.6 12 Sur 17 Sudeste 0 -- -- 77
2020-10-23 09:00:00 12.8 12 Sudeste 16 Sur 0 -- -- 76
2020-10-23 08:00:00 13.1 6 Sudeste 13 Sudeste 0 -- -- 76
2020-10-23 07:00:00 12.9 2 Oeste 31 Oeste 0 -- -- 77
2020-10-23 06:00:00 13.2 23 Oeste 32 Oeste 0 -- -- 78
2020-10-23 05:00:00 13.7 11 Oeste 23 Oeste 0 -- -- 78
2020-10-23 04:00:00 13.5 6 Noroeste 22 Oeste 0.1 -- -- 78
2020-10-23 03:00:00 13.6 15 Noroeste 31 Noroeste 0 -- -- 79
2020-10-23 02:00:00 13.6 18 Noroeste 32 Norte 0 -- -- 80
2020-10-23 01:00:00 13.3 25 Noroeste 35 Noroeste 0.1 -- -- 79
2020-10-23 00:00:00 13.6 12 Oeste 24 Oeste 0 -- -- 79
2020-10-22 23:00:00 13.9 11 Oeste 16 Oeste 0 -- -- 79
2020-10-22 22:00:00 13.7 10 Oeste 15 Sudoeste 0 -- -- 79
2020-10-22 21:00:00 13.9 12 Sudoeste 21 Sudoeste 0 -- -- 78
2020-10-22 20:00:00 13.8 20 Oeste 32 Oeste 0.1 -- -- 77
2020-10-22 19:00:00 14.8 21 Sudoeste 37 Sudoeste 0 -- -- 72
2020-10-22 18:00:00 16.3 27 Sudoeste 40 Sudoeste 0 -- -- 69
2020-10-22 17:00:00 16.7 28 Sudoeste 42 Sudoeste 0 -- -- 66
2020-10-22 16:00:00 16.7 31 Sudoeste 43 Sur 0 -- -- 66
2020-10-22 15:00:00 16.8 32 Sur 45 Sur 0 -- -- 69
2020-10-22 14:00:00 15.8 32 Sur 47 Sur 0 -- -- 74
2020-10-22 13:00:00 14.6 27 Sur 42 Sur 0 -- -- 79
2020-10-22 12:00:00 13.1 26 Sur 44 Sur 0.2 -- -- 80
2020-10-22 11:00:00 12.7 28 Sur 40 Sur 2.2 -- -- 81
2020-10-22 10:00:00 12.8 21 Sur 44 Sur 0.6 -- -- 78
2020-10-22 09:00:00 13.4 24 Sur 36 Sur 0.3 -- -- 77
2020-10-22 08:00:00 13.3 33 Sur 51 Sur 1.7 -- -- 78
2020-10-22 07:00:00 14.4 30 Sur 48 Sur 0 -- -- 76
2020-10-22 06:00:00 14.5 32 Sur 49 Sur 0 -- -- 76
2020-10-22 05:00:00 14.3 32 Sur 44 Sur 0 -- -- 76
2020-10-22 04:00:00 14.5 31 Sur 50 Sur 0 -- -- 75
2020-10-22 03:00:00 14.2 34 Sur 47 Sur 0 -- -- 75
2020-10-22 02:00:00 14.5 30 Sur 44 Sur 0 -- -- 76
2020-10-22 01:00:00 14.3 31 Sur 43 Sur 0 -- -- 75
2020-10-22 00:00:00 14.4 30 Sur 47 Sur 0 -- -- 74
2020-10-21 23:00:00 14.4 33 Sur 44 Sur 0 -- -- 73
2020-10-21 22:00:00 14.3 26 Sur 38 Sur 0 -- -- 72
2020-10-21 21:00:00 14.5 28 Sur 39 Sur 0 -- -- 70
2020-10-21 20:00:00 14.4 27 Sur 40 Sur 0 -- -- 69
2020-10-21 19:00:00 15.5 29 Sur 42 Sur 0 -- -- 65
2020-10-21 18:00:00 16.3 28 Sur 43 Sur 0 -- -- 66
2020-10-21 17:00:00 16.6 27 Sur 39 Sur 0 -- -- 70
2020-10-21 16:00:00 15.6 19 Sur 31 Sudoeste 0.3 -- -- 73
2020-10-21 15:00:00 15 25 Sudoeste 40 Sudoeste 0 -- -- 68
2020-10-21 14:00:00 14.2 29 Sudoeste 43 Sudoeste 0 -- -- 71
2020-10-21 13:00:00 15.8 22 Sur 31 Sur 0 -- -- 70
2020-10-21 12:00:00 14.9 22 Sur 29 Sur 0 -- -- 74
2020-10-21 11:00:00 14.5 21 Sur 27 Sur 0 -- -- 82
2020-10-21 10:00:00 13.5 20 Sur 25 Sur 0 -- -- 82
2020-10-21 09:00:00 13.4 19 Sur 26 Sur 0 -- -- 82
2020-10-21 08:00:00 13.1 17 Sur 23 Sur 0 -- -- 84
2020-10-21 07:00:00 13.2 17 Sur 21 Sur 0.1 -- -- 84
2020-10-21 06:00:00 13.1 13 Sudoeste 28 Sudoeste 0.3 -- -- 84
2020-10-21 05:00:00 13.3 14 Sudoeste 26 Oeste 0.8 -- -- 84
2020-10-21 04:00:00 13.6 20 Oeste 31 Oeste 0.6 -- -- 84
2020-10-21 03:00:00 14.3 16 Oeste 31 Sudoeste 0.5 -- -- 84
2020-10-21 02:00:00 14.7 29 Sudoeste 43 Sur 0.1 -- -- 83
2020-10-21 01:00:00 15 35 Sudoeste 48 Sudoeste 0.3 -- -- 83
2020-10-21 00:00:00 14.7 29 Sur 43 Sur 1.7 -- -- 82
2020-10-20 23:00:00 14.8 23 Sur 36 Sur 3.6 -- -- 81
2020-10-20 22:00:00 15 24 Sur 33 Sur 1.1 -- -- 78
2020-10-20 21:00:00 15 25 Sur 34 Sur 0 -- -- 75
2020-10-20 20:00:00 14.8 21 Sur 33 Sur 0 -- -- 75
2020-10-20 19:00:00 15.3 12 Sur 30 Sur 0.1 -- -- 76
2020-10-20 18:00:00 15.5 21 Sur 40 Sur 0.1 -- -- 74
2020-10-20 17:00:00 16.5 24 Sur 46 Sur 0 -- -- 72
2020-10-20 16:00:00 16.7 36 Sur 61 Sur 0 -- -- 72
2020-10-20 15:00:00 16.8 38 Sur 57 Sur 0 -- -- 75
2020-10-20 14:00:00 17.7 37 Sur 61 Sur 0 -- -- 74
2020-10-20 13:00:00 17.1 42 Sur 61 Sur 0 -- -- 77
2020-10-20 12:00:00 16.5 37 Sur 60 Sur 0 -- -- 79
2020-10-20 11:00:00 16.1 42 Sur 59 Sur 0 -- -- 79
2020-10-20 10:00:00 15.8 32 Sur 58 Sur 0 -- -- 80
2020-10-20 09:00:00 15.3 37 Sur 51 Sur 0 -- -- 80
2020-10-20 08:00:00 15.3 33 Sur 54 Sur 0 -- -- 79
2020-10-20 07:00:00 15.8 42 Sur 58 Sur 0 -- -- 79
2020-10-20 06:00:00 15.7 41 Sur 56 Sudoeste 0 -- -- 78
2020-10-20 05:00:00 15.9 42 Sur 59 Sudoeste 0 -- -- 78
2020-10-20 04:00:00 15.9 33 Sur 44 Sur 0 -- -- 78
2020-10-20 03:00:00 15.7 33 Sur 49 Sur 0 -- -- 78
2020-10-20 02:00:00 15.6 34 Sur 48 Sur 0 -- -- 80
2020-10-20 01:00:00 15.8 34 Sur 46 Sur 0 -- -- 80
2020-10-20 00:00:00 15.9 33 Sur 49 Sur 0 -- -- 82
2020-10-19 23:00:00 15.9 34 Sur 50 Sur 0 -- -- 83
2020-10-19 22:00:00 15.9 34 Sudoeste 48 Sur 0 -- -- 84
2020-10-19 21:00:00 15.9 33 Sudoeste 50 Sudoeste 0 -- -- 84
2020-10-19 20:00:00 15.6 35 Sudoeste 49 Sur 0 -- -- 84
2020-10-19 19:00:00 15.1 24 Sudoeste 32 Sudoeste 0.2 -- -- 84
2020-10-19 18:00:00 14.7 25 Sudoeste 48 Sur 0.6 -- -- 84
2020-10-19 17:00:00 15.4 33 Sur 68 Sudoeste 3.3 -- -- 83
2020-10-19 16:00:00 15.5 48 Sur 90 Sur 3.6 -- -- 81
2020-10-19 15:00:00 15.5 64 Sur 94 Sur 4.2 -- -- 81
2020-10-19 14:00:00 15.2 61 Sur 93 Sur 3.8 -- -- 70
2020-10-19 13:00:00 17.8 55 Sur 87 Sur 0 -- -- 50
2020-10-19 12:00:00 18.6 57 Sur 93 Sur 0 -- -- 50
2020-10-19 11:00:00 18.1 52 Sur 77 Sur 0 -- -- 51
2020-10-19 10:00:00 17.1 53 Sur 86 Sur 0 -- -- 50
2020-10-19 09:00:00 17.7 51 Sur 74 Sur 0 -- -- 44
2020-10-19 08:00:00 17.4 41 Sur 62 Sur 0 -- -- 51
2020-10-19 07:00:00 17.5 35 Sur 51 Sur 0 -- -- 44
2020-10-19 06:00:00 17.6 36 Sur 62 Sur 0 -- -- 33
2020-10-19 05:00:00 19.9 25 Sur 35 Sur 0 -- -- 33
2020-10-19 04:00:00 17.8 17 Sudeste 27 Sudeste 0 -- -- 40
2020-10-19 03:00:00 17.8 15 Sudeste 23 Sudeste 0 -- -- 44
2020-10-19 02:00:00 18.1 18 Sudeste 25 Sudeste 0 -- -- 46
2020-10-19 01:00:00 16.9 11 Sudeste 20 Sudeste 0 -- -- 48
2020-10-19 00:00:00 17.1 14 Sudeste 22 Sudeste 0 -- -- 48
2020-10-18 23:00:00 16.6 14 Este 20 Este 0 -- -- 47
2020-10-18 22:00:00 17.1 12 Sudeste 18 Sudeste 0 -- -- 41
2020-10-18 21:00:00 18 12 Sur 28 Sur 0 -- -- 40
2020-10-18 20:00:00 18 17 Sur 39 Sur 0 -- -- 43
2020-10-18 19:00:00 18.1 18 Sur 36 Sur 0 -- -- 48
2020-10-18 18:00:00 18.9 25 Sur 38 Sur 0 -- -- 51
2020-10-18 17:00:00 20.2 24 Sur 39 Sur 0 -- -- 57
2020-10-18 16:00:00 19 26 Sur 44 Sur 0 -- -- 62
2020-10-18 15:00:00 18.6 26 Sur 42 Sur 0 -- -- 64
2020-10-18 14:00:00 17.7 29 Sur 45 Sur 0 -- -- 65
2020-10-18 13:00:00 18.6 27 Sur 44 Sur 0 -- -- 67
2020-10-18 12:00:00 17.8 24 Sur 36 Sur 0 -- -- 73
2020-10-18 11:00:00 16.4 21 Sur 34 Sur 0 -- -- 80
2020-10-18 10:00:00 15.9 21 Sur 34 Sur 0 -- -- 80
2020-10-18 09:00:00 15.7 23 Sur 34 Sur 0 -- -- 80
2020-10-18 08:00:00 15.7 21 Sur 31 Sur 0.2 -- -- 79
2020-10-18 07:00:00 15.7 19 Sur 32 Sur 0 -- -- 74
2020-10-18 06:00:00 16.1 18 Sur 28 Sur 0 -- -- 71
2020-10-18 05:00:00 16.2 14 Sur 30 Sur 0 -- -- 72
2020-10-18 04:00:00 15.9 17 Sur 26 Sur 0 -- -- 76
2020-10-18 03:00:00 15.6 12 Sur 24 Sur 0 -- -- 77
2020-10-18 02:00:00 15.4 13 Sur 18 Sur 0 -- -- 77
2020-10-18 01:00:00 14.6 0 Calma 10 Sudeste 0 -- -- 78
2020-10-18 00:00:00 14.3 7 Sur 14 Sur 0 -- -- 79
2020-10-17 23:00:00 13.7 14 Sur 30 Sur 0 -- -- 77
2020-10-17 22:00:00 14.1 24 Sur 37 Sur 0 -- -- 77
2020-10-17 21:00:00 14 24 Sur 36 Sur 0 -- -- 74
2020-10-17 20:00:00 14.2 23 Sur 45 Sur 0 -- -- 70
2020-10-17 19:00:00 15 26 Sur 44 Sur 0 -- -- 68
2020-10-17 18:00:00 15.5 32 Sur 44 Sur 0 -- -- 66
2020-10-17 17:00:00 16 31 Sur 46 Sur 0 -- -- 67
2020-10-17 16:00:00 15.2 36 Sur 50 Sur 0 -- -- 66
2020-10-17 15:00:00 15.9 33 Sur 51 Sur 0 -- -- 69
2020-10-17 14:00:00 15.8 34 Sur 47 Sur 0 -- -- 70
2020-10-17 13:00:00 15.3 32 Sur 44 Sur 0 -- -- 75
2020-10-17 12:00:00 14.5 32 Sur 53 Sur 0 -- -- 78
2020-10-17 11:00:00 13.5 31 Sur 46 Sur 0 -- -- 77
2020-10-17 10:00:00 13.2 31 Sur 46 Sur 0 -- -- 76
2020-10-17 09:00:00 13.2 34 Sur 50 Sur 0 -- -- 73
2020-10-17 08:00:00 13.2 35 Sur 51 Sur 0 -- -- 73
2020-10-17 07:00:00 13.2 33 Sur 48 Sur 0 -- -- 72
2020-10-17 06:00:00 12.7 29 Sur 44 Sur 0 -- -- 73
2020-10-17 05:00:00 12.8 26 Sur 41 Sur 0.2 -- -- 72
2020-10-17 04:00:00 13.2 29 Sur 42 Sur 0.1 -- -- 70
2020-10-17 03:00:00 13.6 26 Sur 39 Sur 0 -- -- 70
2020-10-17 02:00:00 13.3 23 Sur 35 Sur 0 -- -- 70
2020-10-17 01:00:00 13 21 Sur 30 Sur 0 -- -- 69
2020-10-17 00:00:00 12.6 18 Sur 26 Sur 0 -- -- 66
2020-10-16 23:00:00 13 19 Sur 29 Sudeste 0 -- -- 66
2020-10-16 22:00:00 12.6 18 Sur 22 Sur 0 -- -- 66
2020-10-16 21:00:00 13 17 Sur 22 Sur 0 -- -- 63
2020-10-16 20:00:00 13.3 16 Sur 21 Sur 0 -- -- 59
2020-10-16 19:00:00 14.1 15 Sur 25 Sur 0 -- -- 55
2020-10-16 18:00:00 15.7 17 Sur 31 Sudoeste 0 -- -- 52
2020-10-16 17:00:00 16.7 22 Sudoeste 30 Sudoeste 0 -- -- 48
2020-10-16 16:00:00 16.7 22 Sudoeste 31 Sudoeste 0 -- -- 51
2020-10-16 15:00:00 16 25 Sudoeste 31 Sudoeste 0 -- -- 50
2020-10-16 14:00:00 16.7 18 Sudoeste 23 Sudoeste 0 -- -- 48
2020-10-16 13:00:00 15.3 10 Sudoeste 16 Sudoeste 0 -- -- 51
2020-10-16 12:00:00 13.7 10 Sur 14 Sur 0 -- -- 52
2020-10-16 11:00:00 12.5 10 Sur 19 Sudeste 0 -- -- 55
2020-10-16 10:00:00 9.8 15 Sudeste 23 Sudeste 0 -- -- 60
2020-10-16 09:00:00 8.5 9 Este 18 Nordeste 0 -- -- 60
2020-10-16 08:00:00 9.1 10 Nordeste 19 Este 0 -- -- 60
2020-10-16 07:00:00 10 12 Nordeste 24 Este 0 -- -- 60
2020-10-16 06:00:00 10.7 17 Nordeste 27 Nordeste 0 -- -- 61
2020-10-16 05:00:00 11 18 Nordeste 26 Nordeste 0 -- -- 63
2020-10-16 04:00:00 10.6 15 Nordeste 23 Este 0 -- -- 63
2020-10-16 03:00:00 11.1 15 Nordeste 26 Este 0 -- -- 61
2020-10-16 02:00:00 11.2 16 Nordeste 23 Este 0 -- -- 60
2020-10-16 01:00:00 11.2 14 Este 24 Este 0 -- -- 60
2020-10-16 00:00:00 12.1 15 Nordeste 28 Este 0 -- -- 63
2020-10-15 23:00:00 12.6 15 Nordeste 34 Nordeste 0 -- -- 60
2020-10-15 22:00:00 13.6 21 Nordeste 35 Nordeste 0 -- -- 59
2020-10-15 21:00:00 14 20 Nordeste 35 Nordeste 0 -- -- 58
2020-10-15 20:00:00 14.3 23 Nordeste 39 Nordeste 0 -- -- 56
2020-10-15 19:00:00 14.4 28 Nordeste 35 Nordeste 0 -- -- 54
2020-10-15 18:00:00 15 23 Nordeste 39 Nordeste 0 -- -- 57
2020-10-15 17:00:00 15.1 33 Nordeste 40 Nordeste 0 -- -- 58
2020-10-15 16:00:00 15.7 23 Nordeste 32 Nordeste 0 -- -- 59
2020-10-15 15:00:00 16.7 16 Nordeste 22 Nordeste 0 -- -- 60
2020-10-15 14:00:00 15.9 5 Norte 21 Norte 0 -- -- 62
2020-10-15 13:00:00 16.4 12 Nordeste 18 Nordeste 0 -- -- 61
2020-10-15 12:00:00 14.7 12 Nordeste 19 Nordeste 0 -- -- 63
2020-10-15 11:00:00 14.3 7 Norte 15 Norte 0 -- -- 64
2020-10-15 10:00:00 13.1 3 Sudeste 7 Sudeste 0 -- -- 65
2020-10-15 09:00:00 12.5 2 Sudeste 10 Sudeste 0 -- -- 64
2020-10-15 08:00:00 13 0 Calma 8 Sudeste 0 -- -- 63
2020-10-15 07:00:00 13.3 0 Calma 9 Sudeste 0 -- -- 62
2020-10-15 06:00:00 13.1 3 Nordeste 9 Nordeste 0 -- -- 60
2020-10-15 05:00:00 13.4 0 Calma 37 Nordeste 0 -- -- 60
2020-10-15 04:00:00 13.3 30 Norte 37 Norte 0 -- -- 70
2020-10-15 03:00:00 13.7 15 Norte 22 Norte 0 -- -- 68
2020-10-15 02:00:00 13.8 13 Norte 21 Norte 0 -- -- 70
2020-10-15 01:00:00 13.9 19 Norte 24 Norte 0 -- -- 68
2020-10-15 00:00:00 13.9 19 Norte 28 Norte 0 -- -- 69
2020-10-14 23:00:00 14 20 Norte 25 Norte 0 -- -- 69
2020-10-14 22:00:00 13.8 21 Norte 26 Norte 0 -- -- 69
2020-10-14 21:00:00 13.6 13 Nordeste 22 Nordeste 0 -- -- 68
2020-10-14 20:00:00 13.6 21 Nordeste 30 Nordeste 0 -- -- 65
2020-10-14 19:00:00 14.3 21 Nordeste 27 Norte 0 -- -- 62
2020-10-14 18:00:00 14.7 23 Norte 27 Nordeste 0 -- -- 61
2020-10-14 17:00:00 15.3 14 Norte 20 Norte 0 -- -- 65
2020-10-14 16:00:00 15.4 15 Nordeste 31 Nordeste 0 -- -- 65
2020-10-14 15:00:00 14.4 17 Nordeste 32 Norte 0.2 -- -- 73
2020-10-14 14:00:00 14.5 14 Norte 26 Nordeste 0.1 -- -- 76
2020-10-14 13:00:00 14.9 17 Norte 24 Norte 0 -- -- 76
2020-10-14 12:00:00 13.4 21 Norte 41 Norte 0.6 -- -- 73
2020-10-14 11:00:00 14.2 22 Norte 30 Norte 0 -- -- 68
2020-10-14 10:00:00 13.9 19 Norte 26 Norte 0 -- -- 71
2020-10-14 09:00:00 13.1 20 Norte 35 Norte 0 -- -- 73
2020-10-14 08:00:00 12.6 15 Norte 36 Noroeste 0.1 -- -- 74
2020-10-14 07:00:00 12.7 21 Norte 42 Noroeste 0.1 -- -- 71
2020-10-14 06:00:00 13.4 26 Norte 35 Nordeste 0 -- -- 70
2020-10-14 05:00:00 13.7 28 Norte 36 Norte 0 -- -- 70
2020-10-14 04:00:00 13.4 23 Norte 33 Norte 0 -- -- 73
2020-10-14 03:00:00 13.4 20 Norte 29 Norte 0 -- -- 77
2020-10-14 02:00:00 12.4 10 Nordeste 40 Norte 0 -- -- 78
2020-10-14 01:00:00 13.2 17 Norte 23 Norte 0 -- -- 77
2020-10-14 00:00:00 12.3 23 Norte 44 Norte 0.2 -- -- 77
2020-10-13 23:00:00 13.6 21 Norte 35 Norte 0 -- -- 71
2020-10-13 22:00:00 13.6 23 Norte 36 Nordeste 0 -- -- 72
2020-10-13 21:00:00 13.2 18 Norte 27 Norte 0 -- -- 71
2020-10-13 20:00:00 12.9 15 Norte 41 Norte 0.1 -- -- 69
2020-10-13 19:00:00 14.3 21 Norte 27 Norte 0 -- -- 63
2020-10-13 18:00:00 14.6 9 Nordeste 15 Nordeste 0 -- -- 64
2020-10-13 17:00:00 14.7 13 Nordeste 30 Norte 0 -- -- 64
2020-10-13 16:00:00 15 20 Norte 26 Norte 0 -- -- 63
2020-10-13 15:00:00 15.1 18 Noroeste 35 Norte 0 -- -- 66
2020-10-13 14:00:00 15.3 15 Norte 28 Norte 0 -- -- 66
2020-10-13 13:00:00 14.8 17 Norte 24 Norte 0 -- -- 67
2020-10-13 12:00:00 15.1 21 Norte 27 Norte 0 -- -- 70
2020-10-13 11:00:00 14.2 19 Norte 26 Norte 0 -- -- 73
2020-10-13 10:00:00 -- -- -- -- -- -- -- -- --
2020-10-13 09:00:00 13.6 18 Norte 23 Norte 0 -- -- 84
2020-10-13 08:00:00 13.6 17 Norte 29 Nordeste 0 -- -- 84
2020-10-13 07:00:00 13.5 24 Nordeste 31 Nordeste 0 -- -- 84
2020-10-13 06:00:00 14 21 Nordeste 35 Norte 0 -- -- 84
2020-10-13 05:00:00 14.4 21 Norte 29 Norte 0 -- -- 84
2020-10-13 04:00:00 -- -- -- -- -- -- -- -- --
2020-10-13 03:00:00 15.7 21 Norte 27 Norte 0.3 -- -- 84
2020-10-13 02:00:00 15.8 4 Oeste 12 Noroeste 0.6 -- -- 84
2020-10-13 01:00:00 -- -- -- -- -- -- -- -- --
2020-10-13 00:00:00 15.9 0 Calma 10 Noroeste 0 -- -- 84
2020-10-12 23:00:00 15.7 5 Norte 15 Noroeste 0 -- -- 84
2020-10-12 22:00:00 15.7 6 Norte 14 Noroeste 0 -- -- 84
2020-10-12 21:00:00 15.8 11 Norte 16 Norte 0 -- -- 83
2020-10-12 20:00:00 15.6 8 Norte 14 Norte 0 -- -- 83
2020-10-12 19:00:00 15.9 7 Norte 16 Norte 0 -- -- 83
2020-10-12 18:00:00 16.5 6 Noroeste 11 Noroeste 0.1 -- -- 82
2020-10-12 17:00:00 15.7 0 Calma 12 Sudoeste 0 -- -- 81
2020-10-12 16:00:00 15.2 8 Sudoeste 16 Sudoeste 0 -- -- 80
2020-10-12 15:00:00 15.2 13 Sudoeste 15 Sudoeste 0 -- -- 77
2020-10-12 14:00:00 15.6 6 Sur 12 Sur 0 -- -- 73
2020-10-12 13:00:00 15.2 8 Sur 11 Sur 0 -- -- 71
2020-10-12 12:00:00 14.4 0 Calma -- -- 0 -- -- 69
2020-10-12 11:00:00 14.6 0 Calma -- -- 0 -- -- 66
2020-10-12 10:00:00 14.2 0 Calma 7 Este 0 -- -- 66
2020-10-12 09:00:00 13.8 0 Calma 25 Sudeste 0 -- -- 66
2020-10-12 08:00:00 13.4 0 Calma 7 Nordeste 0 -- -- 66
2020-10-12 07:00:00 13.6 0 Calma 19 Nordeste 0 -- -- 66
2020-10-12 06:00:00 13.4 11 Nordeste 28 Nordeste 0 -- -- 66
2020-10-12 05:00:00 14.1 17 Nordeste 27 Norte 0 -- -- 64
2020-10-12 04:00:00 -- -- -- -- -- -- -- -- --
2020-10-12 03:00:00 14.7 24 Nordeste 39 Nordeste 0 -- -- 63
2020-10-12 02:00:00 14.8 25 Nordeste 40 Nordeste 0 -- -- 62
2020-10-12 01:00:00 14.3 31 Nordeste 36 Nordeste 0 -- -- 66
2020-10-12 00:00:00 14 30 Nordeste 41 Nordeste 0 -- -- 63
2020-10-11 23:00:00 14.3 32 Nordeste 49 Nordeste 0 -- -- 60
2020-10-11 22:00:00 14.7 41 Nordeste 54 Nordeste 0 -- -- 54
2020-10-11 21:00:00 -- -- -- -- -- -- -- -- --
2020-10-11 20:00:00 -- -- -- -- -- -- -- -- --
2020-10-11 19:00:00 14.6 44 Nordeste 53 Nordeste 0 -- -- 57
2020-10-11 18:00:00 15.1 45 Nordeste 55 Nordeste 0 -- -- 54
2020-10-11 17:00:00 15.3 43 Nordeste 53 Nordeste 0 -- -- 55
2020-10-11 16:00:00 15.3 45 Nordeste 53 Nordeste 0 -- -- 56
2020-10-11 15:00:00 15.4 44 Nordeste 53 Nordeste 0 -- -- 55
2020-10-11 14:00:00 15.6 37 Nordeste 49 Nordeste 0 -- -- 54
2020-10-11 13:00:00 15.5 39 Nordeste 50 Nordeste 0 -- -- 56
2020-10-11 12:00:00 14.9 44 Nordeste 53 Nordeste 0 -- -- 55
2020-10-11 11:00:00 15.3 38 Nordeste 54 Nordeste 0 -- -- 51
2020-10-11 10:00:00 14.6 37 Nordeste 56 Nordeste 0 -- -- 54
2020-10-11 09:00:00 14.6 46 Nordeste 60 Nordeste 0 -- -- 54
2020-10-11 08:00:00 14.7 41 Nordeste 60 Nordeste 0 -- -- 50
2020-10-11 07:00:00 14.5 47 Nordeste 59 Nordeste 0 -- -- 55
2020-10-11 06:00:00 14.4 46 Nordeste 59 Nordeste 0 -- -- 55
2020-10-11 05:00:00 14.4 48 Nordeste 58 Nordeste 0 -- -- 56
2020-10-11 04:00:00 14.3 48 Nordeste 58 Nordeste 0 -- -- 59
2020-10-11 03:00:00 14.4 45 Nordeste 54 Nordeste 0 -- -- 60
2020-10-11 02:00:00 14.3 44 Nordeste 55 Nordeste 0 -- -- 60
2020-10-11 01:00:00 14.3 49 Nordeste 59 Nordeste 0 -- -- 60
2020-10-11 00:00:00 14.5 49 Nordeste 60 Nordeste 0 -- -- 63
2020-10-10 23:00:00 14.5 46 Nordeste 58 Nordeste 0 -- -- 65
2020-10-10 22:00:00 14.6 48 Nordeste 62 Nordeste 0 -- -- 64
2020-10-10 21:00:00 14.5 49 Nordeste 63 Nordeste 0 -- -- 66
2020-10-10 20:00:00 14.7 51 Nordeste 63 Nordeste 0 -- -- 66
2020-10-10 19:00:00 15.2 48 Nordeste 61 Nordeste 0 -- -- 62
2020-10-10 18:00:00 15.5 50 Nordeste 64 Nordeste 0 -- -- 63
2020-10-10 17:00:00 15.9 50 Nordeste 58 Nordeste 0 -- -- 62
2020-10-10 16:00:00 16.2 44 Nordeste 62 Nordeste 0 -- -- 60
2020-10-10 15:00:00 16.3 50 Nordeste 62 Nordeste 0 -- -- 58
2020-10-10 14:00:00 16.3 50 Nordeste 65 Nordeste 0 -- -- 58
2020-10-10 13:00:00 16.2 51 Nordeste 61 Nordeste 0 -- -- 59
2020-10-10 12:00:00 15.9 48 Nordeste 65 Nordeste 0 -- -- 60
2020-10-10 11:00:00 15.8 46 Nordeste 63 Nordeste 0 -- -- 60
2020-10-10 10:00:00 15.3 41 Nordeste 56 Nordeste 0 -- -- 62
2020-10-10 09:00:00 14.9 40 Nordeste 54 Nordeste 0 -- -- 63
2020-10-10 08:00:00 14.8 28 Nordeste 48 Nordeste 0 -- -- 63
2020-10-10 07:00:00 14.7 29 Nordeste 60 Nordeste 0 -- -- 63
2020-10-10 06:00:00 15 44 Nordeste 65 Nordeste 0 -- -- 65
2020-10-10 05:00:00 14.8 53 Nordeste 67 Nordeste 0 -- -- 68
2020-10-10 04:00:00 14.7 54 Nordeste 64 Nordeste 0 -- -- 76
2020-10-10 03:00:00 14.7 49 Nordeste 59 Nordeste 0 -- -- 81
2020-10-10 02:00:00 14.6 49 Nordeste 60 Nordeste 0.1 -- -- 82
2020-10-10 01:00:00 15.6 43 Nordeste 51 Nordeste 0 -- -- 81
2020-10-10 00:00:00 15.7 43 Nordeste 53 Nordeste 0 -- -- 83
2020-10-09 23:00:00 15.8 41 Nordeste 50 Nordeste 0.1 -- -- 83
2020-10-09 22:00:00 15.9 44 Nordeste 53 Nordeste 0 -- -- 82
2020-10-09 21:00:00 16.7 23 Nordeste 35 Nordeste 0 -- -- 79
2020-10-09 20:00:00 16.5 22 Nordeste 30 Nordeste 0 -- -- 80
2020-10-09 19:00:00 16.8 15 Nordeste 19 Nordeste 0 -- -- 77
2020-10-09 18:00:00 17.3 9 Nordeste 12 Nordeste 0 -- -- 71
2020-10-09 17:00:00 19.1 5 Oeste 15 Oeste 0 -- -- 68
2020-10-09 16:00:00 18.1 13 Sudoeste 19 Sudoeste 0 -- -- 68
2020-10-09 15:00:00 18.5 17 Sudoeste 22 Sudoeste 0 -- -- 69
2020-10-09 14:00:00 18.7 16 Sudoeste 22 Sudoeste 0 -- -- 70
2020-10-09 13:00:00 18.3 17 Sudoeste 23 Sur 0 -- -- 74
2020-10-09 12:00:00 17.2 13 Sudoeste 34 Sudoeste 0 -- -- 80
2020-10-09 11:00:00 16.9 10 Sudoeste 17 Sudoeste 0 -- -- 81
2020-10-09 10:00:00 16.9 10 Sur 19 Sur 0 -- -- 81
2020-10-09 09:00:00 16.7 11 Sur 19 Sur 0 -- -- 81
2020-10-09 08:00:00 16.6 11 Sur 18 Sur 0 -- -- 81
2020-10-09 07:00:00 16.2 15 Sur 19 Sur 0 -- -- 80
2020-10-09 06:00:00 16.1 15 Sur 19 Sur 0 -- -- 80
2020-10-09 05:00:00 16.1 12 Sur 18 Sur 0 -- -- 80
2020-10-09 04:00:00 15.8 13 Sur 17 Sur 0 -- -- 80
2020-10-09 03:00:00 15.8 11 Sur 14 Sur 0 -- -- 80
2020-10-09 02:00:00 16.2 9 Sur 12 Sur 0 -- -- 79
2020-10-09 01:00:00 16 10 Sur 13 Sur 0 -- -- 79
2020-10-09 00:00:00 15.8 10 Sur 14 Sudeste 0 -- -- 78
2020-10-08 23:00:00 16.1 6 Sur 11 Sudeste 0 -- -- 77
2020-10-08 22:00:00 16 8 Sudeste 12 Sudeste 0 -- -- 75
2020-10-08 21:00:00 16.9 0 Calma -- -- 0 -- -- 73
2020-10-08 20:00:00 17.4 0 Calma -- -- 0 -- -- 68
2020-10-08 19:00:00 18.6 0 Calma 9 Oeste 0 -- -- 63
2020-10-08 18:00:00 19 0 Calma 10 Oeste 0 -- -- 58
2020-10-08 17:00:00 18.3 6 Noroeste 12 Noroeste 0 -- -- 61
2020-10-08 16:00:00 18.7 0 Calma 8 Norte 0 -- -- 61
2020-10-08 15:00:00 18.5 6 Norte 9 Norte 0 -- -- 64
2020-10-08 14:00:00 17.8 5 Nordeste 10 Norte 0 -- -- 64
2020-10-08 13:00:00 18.2 0 Calma 6 Norte 0 -- -- 63
2020-10-08 12:00:00 17.8 0 Calma 4 Nordeste 0 -- -- 70
2020-10-08 11:00:00 15.7 3 Nordeste 10 Este 0 -- -- 74
2020-10-08 10:00:00 14.2 5 Este 8 Sudeste 0 -- -- 76
2020-10-08 09:00:00 14 0 Calma 10 Este 0 -- -- 75
2020-10-08 08:00:00 13.8 10 Este 17 Este 0 -- -- 75
2020-10-08 07:00:00 13.5 14 Este 18 Este 0 -- -- 75
2020-10-08 06:00:00 14.5 12 Este 18 Este 0 -- -- 74
2020-10-08 05:00:00 15 16 Este 19 Este 0 -- -- 76
2020-10-08 04:00:00 14.8 7 Nordeste 10 Nordeste 0 -- -- 76
2020-10-08 03:00:00 14.9 4 Este 8 Nordeste 0 -- -- 76
2020-10-08 02:00:00 14.6 7 Nordeste 11 Este 0 -- -- 77
2020-10-08 01:00:00 15.1 9 Este 12 Nordeste 0 -- -- 77
2020-10-08 00:00:00 15.2 9 Este 13 Nordeste 0 -- -- 77
2020-10-07 23:00:00 15.3 6 Este 9 Este 0 -- -- 76
2020-10-07 22:00:00 16.4 0 Calma -- -- 0 -- -- 76
2020-10-07 21:00:00 16.4 0 Calma 7 Noroeste 0 -- -- 75
2020-10-07 20:00:00 16.9 0 Calma 7 Noroeste 0 -- -- 71
2020-10-07 19:00:00 18.8 0 Calma 8 Noroeste 0 -- -- 72
2020-10-07 18:00:00 19.1 5 Oeste 12 Oeste 0 -- -- 75
2020-10-07 17:00:00 19.1 7 Sudoeste 14 Sudoeste 0 -- -- 76
2020-10-07 16:00:00 18.7 8 Sudoeste 14 Sudoeste 0 -- -- 79
2020-10-07 15:00:00 18.8 9 Sudoeste 15 Sudoeste 0 -- -- 80
2020-10-07 14:00:00 18.5 11 Sudoeste 15 Sudoeste 0 -- -- 82
2020-10-07 13:00:00 18.6 9 Sudoeste 14 Sudoeste 0 -- -- 83
2020-10-07 12:00:00 17.5 8 Sudoeste 13 Sudoeste 0 -- -- 83
2020-10-07 11:00:00 17.4 6 Noroeste 9 Noroeste 0 -- -- 84
2020-10-07 10:00:00 17 6 Noroeste 8 Noroeste 0 -- -- 84
2020-10-07 09:00:00 16.5 6 Sur 9 Sudoeste 0 -- -- 84
2020-10-07 08:00:00 16.5 0 Calma 9 Sudoeste 0 -- -- 84
2020-10-07 07:00:00 16.4 8 Sudoeste 12 Sudoeste 0 -- -- 84
2020-10-07 06:00:00 16.6 4 Sudoeste 13 Oeste 0 -- -- 84
2020-10-07 05:00:00 16.4 7 Sur 15 Sudoeste 0 -- -- 84
2020-10-07 04:00:00 16.5 6 Sudoeste 16 Sudoeste 0 -- -- 84
2020-10-07 03:00:00 16.5 12 Sudoeste 20 Sudoeste 0 -- -- 84
2020-10-07 02:00:00 16.2 17 Sudoeste 23 Sudoeste 0 -- -- 84
2020-10-07 01:00:00 16.2 18 Sudoeste 26 Sudoeste 0.1 -- -- 84
2020-10-07 00:00:00 16.3 21 Sudoeste 31 Sudoeste 0 -- -- 84
2020-10-06 23:00:00 16.7 23 Sudoeste 32 Sudoeste 0 -- -- 84
2020-10-06 22:00:00 16.6 23 Sudoeste 31 Sudoeste 0 -- -- 84
2020-10-06 21:00:00 16.5 24 Sudoeste 31 Sudoeste 0.2 -- -- 84
2020-10-06 20:00:00 16.8 26 Sudoeste 34 Sudoeste 0 -- -- 83
2020-10-06 19:00:00 17.1 24 Sudoeste 33 Sudoeste 0 -- -- 83
2020-10-06 18:00:00 17.1 27 Sudoeste 35 Sudoeste 0 -- -- 83
2020-10-06 17:00:00 17.3 27 Sudoeste 35 Sudoeste 0 -- -- 83
2020-10-06 16:00:00 17.1 28 Sudoeste 35 Sudoeste 0 -- -- 84
2020-10-06 15:00:00 17 28 Sudoeste 41 Sudoeste 0 -- -- 84
2020-10-06 14:00:00 17 29 Sudoeste 41 Sudoeste 0 -- -- 84
2020-10-06 13:00:00 17.1 31 Sudoeste 39 Sudoeste 0 -- -- 84
2020-10-06 12:00:00 16.6 24 Sudoeste 32 Sudoeste 0 -- -- 84
2020-10-06 11:00:00 16.2 24 Sudoeste 33 Sudoeste 0 -- -- 84
2020-10-06 10:00:00 16.1 26 Sudoeste 34 Sudoeste 0 -- -- 84
2020-10-06 09:00:00 16.1 24 Sudoeste 33 Sudoeste 0 -- -- 84
2020-10-06 08:00:00 16.1 22 Sudoeste 28 Sudoeste 0 -- -- 84
2020-10-06 07:00:00 15.9 23 Sudoeste 31 Sudoeste 0 -- -- 84
2020-10-06 06:00:00 15.9 23 Sudoeste 33 Sur 0 -- -- 84
2020-10-06 05:00:00 16 24 Sudoeste 33 Sur 0 -- -- 84
2020-10-06 04:00:00 16.3 26 Sudoeste 33 Sudoeste 0 -- -- 84
2020-10-06 03:00:00 16.2 21 Sudoeste 26 Sudoeste 0 -- -- 84
2020-10-06 02:00:00 16.1 15 Sudoeste 21 Sur 0 -- -- 84
2020-10-06 01:00:00 16 15 Sudoeste 27 Sudoeste 0.1 -- -- 84
2020-10-06 00:00:00 16.1 15 Sudoeste 22 Sudoeste 0 -- -- 84
2020-10-05 23:00:00 16.2 18 Sudoeste 27 Sudoeste 0 -- -- 84
2020-10-05 22:00:00 16.3 24 Sudoeste 32 Sudoeste 0 -- -- 84
2020-10-05 21:00:00 16.7 25 Sudoeste 32 Sudoeste 0.1 -- -- 84
2020-10-05 20:00:00 16.6 23 Sudoeste 31 Sudoeste 0 -- -- 83
2020-10-05 19:00:00 16.7 21 Sur 36 Sur 0 -- -- 81
2020-10-05 18:00:00 16.5 25 Sur 46 Sur 0 -- -- 79
2020-10-05 17:00:00 16.5 32 Sur 46 Sur 0 -- -- 79
2020-10-05 16:00:00 16.6 34 Sur 49 Sur 0 -- -- 78
2020-10-05 15:00:00 17.4 30 Sur 41 Sur 0 -- -- 78
2020-10-05 14:00:00 16.7 25 Sur 31 Sur 0 -- -- 79
2020-10-05 13:00:00 16 19 Sur 26 Sur 0 -- -- 79
2020-10-05 12:00:00 15.8 20 Sur 30 Sur 0 -- -- 79
2020-10-05 11:00:00 15.5 18 Sur 26 Sur 0 -- -- 78
2020-10-05 10:00:00 14.6 14 Sur 25 Sur 0 -- -- 77
2020-10-05 09:00:00 14.4 20 Sur 26 Sur 0 -- -- 75
2020-10-05 08:00:00 14.6 11 Sudoeste 14 Sudoeste 0 -- -- 76
2020-10-05 07:00:00 14.5 5 Oeste 8 Sudoeste 0 -- -- 77
2020-10-05 06:00:00 14.4 0 Calma 21 Oeste 0 -- -- 77
2020-10-05 05:00:00 14.4 13 Sudoeste 18 Sudoeste 0 -- -- 77
2020-10-05 04:00:00 13.9 10 Sudoeste 15 Sudoeste 0 -- -- 75
2020-10-05 03:00:00 14.1 8 Oeste 21 Noroeste 0 -- -- 73
2020-10-05 02:00:00 14 13 Noroeste 18 Noroeste 0 -- -- 73
2020-10-05 01:00:00 14.3 9 Noroeste 25 Oeste 0 -- -- 70
2020-10-05 00:00:00 14.5 15 Oeste 30 Noroeste 0 -- -- 70
2020-10-04 23:00:00 13.8 20 Noroeste 28 Noroeste 0 -- -- 75
2020-10-04 22:00:00 14 17 Oeste 33 Oeste 0.2 -- -- 73
2020-10-04 21:00:00 14.4 17 Sudoeste 24 Oeste 0 -- -- 71
2020-10-04 20:00:00 14.1 19 Oeste 32 Oeste 0 -- -- 65
2020-10-04 19:00:00 15.4 8 Oeste 33 Noroeste 0 -- -- 63
2020-10-04 18:00:00 16.6 15 Oeste 30 Noroeste 0 -- -- 66
2020-10-04 17:00:00 16 10 Oeste 21 Noroeste 0 -- -- 70
2020-10-04 16:00:00 14.7 18 Noroeste 30 Noroeste 0.2 -- -- 73
2020-10-04 15:00:00 14.9 20 Oeste 35 Noroeste 0.1 -- -- 72
2020-10-04 14:00:00 15 18 Noroeste 34 Noroeste 0.3 -- -- 73
2020-10-04 13:00:00 15.5 10 Noroeste 39 Noroeste 0.1 -- -- 73
2020-10-04 12:00:00 14.3 23 Noroeste 45 Noroeste 0.5 -- -- 70
2020-10-04 11:00:00 14.6 23 Noroeste 44 Noroeste 0 -- -- 70
2020-10-04 10:00:00 14.8 20 Noroeste 35 Oeste 0 -- -- 71
2020-10-04 09:00:00 14.2 25 Noroeste 43 Noroeste 0.4 -- -- 72
2020-10-04 08:00:00 13.8 19 Oeste 47 Oeste 0 -- -- 70
2020-10-04 07:00:00 14.6 24 Oeste 44 Oeste 0 -- -- 70
2020-10-04 06:00:00 14.3 23 Oeste 33 Noroeste 0 -- -- 70
2020-10-04 05:00:00 14.5 21 Noroeste 36 Noroeste 0 -- -- 74
2020-10-04 04:00:00 14.5 17 Noroeste 37 Noroeste 0 -- -- 75
2020-10-04 03:00:00 14.1 27 Noroeste 37 Noroeste 0 -- -- 81
2020-10-04 02:00:00 14.4 14 Sudoeste 28 Noroeste 0.1 -- -- 82
2020-10-04 01:00:00 14.4 18 Oeste 53 Sudoeste 0.3 -- -- 81
2020-10-04 00:00:00 14.5 31 Sudoeste 41 Sudoeste 1.7 -- -- 77
2020-10-03 23:00:00 15.2 26 Sudoeste 35 Sudoeste 0 -- -- 71
2020-10-03 22:00:00 14.9 26 Sur 34 Sudoeste 0 -- -- 70
2020-10-03 21:00:00 14.3 23 Sur 28 Sudoeste 0 -- -- 72
2020-10-03 20:00:00 14.3 19 Sudoeste 32 Sudoeste 0 -- -- 70
2020-10-03 19:00:00 15.5 24 Sudoeste 35 Sudoeste 0 -- -- 65
2020-10-03 18:00:00 16.5 19 Sudoeste 23 Sudoeste 0 -- -- 65
2020-10-03 17:00:00 15.6 17 Oeste 41 Oeste 0.2 -- -- 66
2020-10-03 16:00:00 15.7 24 Sudoeste 32 Sudoeste 0 -- -- 58
2020-10-03 15:00:00 16.3 16 Sudoeste 25 Sudoeste 0 -- -- 60
2020-10-03 14:00:00 16.7 16 Sudoeste 31 Oeste 0 -- -- 54
2020-10-03 13:00:00 16.6 9 Oeste 38 Norte 0 -- -- 58
2020-10-03 12:00:00 16.2 14 Oeste 22 Noroeste 0 -- -- 56
2020-10-03 11:00:00 15.3 9 Noroeste 27 Norte 0 -- -- 55
2020-10-03 10:00:00 14.4 17 Noroeste 33 Noroeste 0 -- -- 58
2020-10-03 09:00:00 13.6 14 Norte 42 Norte 0 -- -- 60
2020-10-03 08:00:00 14.2 22 Noroeste 37 Noroeste 0 -- -- 57
2020-10-03 07:00:00 12.8 21 Noroeste 49 Norte 0.1 -- -- 63
2020-10-03 06:00:00 13.1 21 Norte 46 Norte 0 -- -- 59
2020-10-03 05:00:00 14 24 Noroeste 44 Norte 0 -- -- 55
2020-10-03 04:00:00 14.2 26 Noroeste 41 Norte 0 -- -- 56
2020-10-03 03:00:00 13.3 38 Norte 50 Norte 0 -- -- 59
2020-10-03 02:00:00 13.7 30 Norte 62 Norte 0 -- -- 59
2020-10-03 01:00:00 13.2 27 Noroeste 58 Noroeste 0.2 -- -- 61
2020-10-03 00:00:00 13.8 30 Norte 57 Norte 0 -- -- 60
2020-10-02 23:00:00 14.4 27 Noroeste 44 Norte 0 -- -- 59
2020-10-02 22:00:00 14.2 30 Norte 42 Noroeste 0 -- -- 61
2020-10-02 21:00:00 13.7 35 Norte 54 Norte 0 -- -- 63
2020-10-02 20:00:00 13.8 25 Norte 55 Noroeste 0 -- -- 66
2020-10-02 19:00:00 13.5 30 Noroeste 72 Noroeste 0.2 -- -- 65
2020-10-02 18:00:00 13.7 33 Noroeste 59 Norte 0.9 -- -- 63
2020-10-02 17:00:00 14.2 29 Noroeste 64 Noroeste 0.2 -- -- 60
2020-10-02 16:00:00 12.4 31 Noroeste 56 Norte 0.5 -- -- 61
2020-10-02 15:00:00 13.1 35 Noroeste 57 Noroeste 0 -- -- 56
2020-10-02 14:00:00 14.8 30 Noroeste 58 Noroeste 0 -- -- 58
2020-10-02 13:00:00 14.1 32 Noroeste 68 Norte 0.1 -- -- 60
2020-10-02 12:00:00 12.4 35 Noroeste 71 Noroeste 0.2 -- -- 61
2020-10-02 11:00:00 12.7 38 Noroeste 63 Norte 0 -- -- 59
2020-10-02 10:00:00 13.4 39 Noroeste 64 Noroeste 0 -- -- 59
2020-10-02 09:00:00 11.6 29 Noroeste 71 Norte 0.1 -- -- 67
2020-10-02 08:00:00 12.1 43 Norte 66 Norte 0 -- -- 68
2020-10-02 07:00:00 12.9 35 Noroeste 64 Noroeste 0.1 -- -- 69
2020-10-02 06:00:00 13.2 37 Noroeste 68 Noroeste 0.1 -- -- 76
2020-10-02 05:00:00 13.7 26 Noroeste 57 Noroeste 0.6 -- -- 83
2020-10-02 04:00:00 14.2 33 Noroeste 50 Noroeste 0.5 -- -- 83
2020-10-02 03:00:00 15.5 30 Oeste 45 Oeste 0.3 -- -- 84
2020-10-02 02:00:00 15.4 29 Oeste 52 Oeste 0.2 -- -- 84
2020-10-02 01:00:00 16.4 37 Sudoeste 59 Oeste 0.1 -- -- 84
2020-10-02 00:00:00 16.4 41 Sudoeste 67 Sudoeste 1.9 -- -- 84
2020-10-01 23:00:00 16.4 42 Sudoeste 61 Sudoeste 0 -- -- 84
2020-10-01 22:00:00 16.5 49 Sudoeste 69 Sudoeste 0.7 -- -- 84
2020-10-01 21:00:00 15.7 48 Sudoeste 69 Sudoeste 1.1 -- -- 84
2020-10-01 20:00:00 15.3 51 Sudoeste 66 Sudoeste 0.7 -- -- 82
2020-10-01 19:00:00 15.2 48 Sudoeste 68 Sudoeste 0.8 -- -- 76
2020-10-01 18:00:00 16.2 50 Sudoeste 66 Sudoeste 0 -- -- 67
2020-10-01 17:00:00 16.3 46 Sudoeste 61 Sudoeste 0 -- -- 66
2020-10-01 16:00:00 16.5 36 Sudoeste 46 Sudoeste 0 -- -- 66
2020-10-01 15:00:00 18 37 Sudoeste 48 Sur 0 -- -- 65
2020-10-01 14:00:00 17.2 30 Sudoeste 38 Sudoeste 0 -- -- 67
2020-10-01 13:00:00 17.2 23 Sudoeste 30 Sudoeste 0 -- -- 71
2020-10-01 12:00:00 15.4 24 Sudoeste 33 Sudoeste 0 -- -- 76
2020-10-01 11:00:00 15.6 16 Sur 22 Sur 0 -- -- 78
2020-10-01 10:00:00 14.4 8 Sur 13 Sur 0 -- -- 80
2020-10-01 09:00:00 14.2 8 Sudoeste 15 Sudoeste 0 -- -- 81
2020-10-01 08:00:00 14.3 8 Sudoeste 17 Noroeste 0.1 -- -- 81
2020-10-01 07:00:00 14.7 4 Noroeste 7 Noroeste 0 -- -- 81
2020-10-01 06:00:00 14.8 3 Oeste 14 Noroeste 0 -- -- 81
2020-10-01 05:00:00 14.6 12 Noroeste 28 Noroeste 0 -- -- 81
2020-10-01 04:00:00 15 17 Oeste 25 Oeste 0 -- -- 81
2020-10-01 03:00:00 14.8 19 Oeste 31 Oeste 0 -- -- 83
2020-10-01 02:00:00 15.2 19 Oeste 24 Oeste 0.1 -- -- 84
2020-10-01 01:00:00 15.7 15 Sudoeste 30 Sudoeste 0 -- -- 84
2020-10-01 00:00:00 15.6 18 Sudoeste 34 Sudoeste 0 -- -- 83
2020-09-30 23:00:00 15.9 32 Sudoeste 59 Sudoeste 0.9 -- -- 82
2020-09-30 22:00:00 16.3 40 Sudoeste 55 Sudoeste 0.4 -- -- 79
2020-09-30 21:00:00 16.4 37 Sur 51 Sudoeste 0 -- -- 71
2020-09-30 20:00:00 17 37 Sur 49 Sur 0 -- -- 64
2020-09-30 19:00:00 17 33 Sudoeste 48 Sudoeste 0 -- -- 61
2020-09-30 18:00:00 18.3 35 Sur 45 Sur 0 -- -- 58
2020-09-30 17:00:00 17.7 33 Sur 44 Sur 0 -- -- 56
2020-09-30 16:00:00 17.6 31 Sudoeste 41 Sur 0 -- -- 54
2020-09-30 15:00:00 17.6 30 Sudoeste 40 Sudoeste 0 -- -- 53
2020-09-30 14:00:00 18.6 26 Sudoeste 32 Sudoeste 0 -- -- 54
2020-09-30 13:00:00 18 21 Sudoeste 28 Sudoeste 0 -- -- 59
2020-09-30 12:00:00 17 15 Sudoeste 22 Sudoeste 0 -- -- 64
2020-09-30 11:00:00 16.2 11 Sur 15 Sur 0 -- -- 71
2020-09-30 10:00:00 15.1 8 Sur 10 Sur 0 -- -- 74
2020-09-30 09:00:00 14.6 3 Sudoeste 9 Sudoeste 0 -- -- 75
2020-09-30 08:00:00 14.8 0 Calma 7 Oeste 0 -- -- 76
2020-09-30 07:00:00 15.1 0 Calma 7 Oeste 0 -- -- 76
2020-09-30 06:00:00 15.1 4 Oeste 8 Oeste 0 -- -- 75
2020-09-30 05:00:00 15.4 0 Calma 3 Sudeste 0 -- -- 74
2020-09-30 04:00:00 15.3 0 Calma 9 Sudeste 0 -- -- 74
2020-09-30 03:00:00 14.3 7 Sudeste 10 Sudeste 0 -- -- 73
2020-09-30 02:00:00 14.7 9 Sudeste 15 Este 0 -- -- 73
2020-09-30 01:00:00 14.2 14 Este 18 Este 0 -- -- 72
2020-09-30 00:00:00 14.7 6 Este 8 Nordeste 0 -- -- 70